Home > Weather > Pirmasens > Past weeks

Flag for Germany Weather for the Past 2 Weeks in Pirmasens, Rhineland-Palatinate, Germany

Now
62 °F

Passing clouds.


Feels Like: 62 °F
Forecast: 41 / 60 °F
Wind: 9 mph from Northeast

Location: Ramstein

Current Time: May 1, 2016 at 5:57:48 PM

Latest Report: May 1, 2016 at 4:58 PM


Visibility: N/A

Pressure: 30.14 "Hg

Humidity: 53%

Dew Point: 44 °F

Location of PirmasensLocation

Historic Weather in Pirmasens — Graph

°F

Pirmasens Temperature Yesterday

Maximum temperature yesterday: 59 °F (at 2:58 PM)
Minimum temperature yesterday: 30 °F (at 1:58 AM)
Average temperature yesterday: 46 °F

High & Low Weather Summary for the Past Weeks

 TemperatureHumidityPressure
High69 °F (Apr 21, 3:58 PM)100% (Apr 16, 10:58 PM)30.42 "Hg (Apr 16, 10:58 PM)
Low27 °F (Apr 25, 5:58 AM)25% (Apr 21, 1:58 PM)29.59 "Hg (Apr 26, 2:58 AM)
Average44 °F78%30.00 "Hg
* Reported Apr 16 3:58 PM — May 1 3:58 PM, Pirmasens, Weather by CustomWeather, © 2016

Note: Actual official high and low records may vary slightly from our data, if they occured in-between our weather recording intervals... More about our weather records

Advertising

Pirmasens Weather History for the Previous 24 Hours

Scroll right to see more
 ConditionsComfort  
Time TempWeatherWind HumidityBarometerVisibility
3:58 PM
Sun, May 1
59 °FPassing clouds.9 mph60%30.14 "HgN/A
2:58 PM57 °FScattered clouds.8 mph67%30.15 "HgN/A
1:58 PM55 °FPartly sunny.12 mph67%30.14 "HgN/A
12:58 PM54 °FPartly sunny.9 mph69%30.14 "HgN/A
11:58 AM50 °FOvercast.5 mph76%30.15 "HgN/A
11:04 AM48 °FScattered clouds.6 mph82%30.11 "HgN/A
9:58 AM46 °FOvercast.10 mph90%30.12 "HgN/A
8:58 AM45 °FOvercast.6 mph100%30.12 "HgN/A
7:58 AM43 °FOvercast.6 mph99%30.10 "HgN/A
6:58 AM43 °FLight rain. Overcast.2 mph99%30.09 "HgN/A
5:58 AM43 °FLight rain. Overcast.6 mph99%30.08 "HgN/A
4:59 AM43 °FLight rain. Overcast.3 mph100%30.04 "HgN/A
3:58 AM42 °FLight rain. Low clouds.3 mph99%30.04 "HgN/A
2:59 AM43 °FLight rain. Overcast.5 mph100%30.04 "HgN/A
2:58 AM43 °FLight rain. Overcast.5 mph100%30.05 "HgN/A
1:58 AM43 °FLight rain. Overcast.10 mph99%30.06 "HgN/A
1:03 AM43 °FRain. Fog.5 mph100%30.04 "Hg6 mi
11:58 PM
Sat, Apr 30
44 °FLight rain. Mostly cloudy.6 mph99%30.06 "HgN/A
10:58 PM45 °FLight rain. Mostly cloudy.2 mph100%30.05 "HgN/A
9:58 PM45 °FLight rain. Partly cloudy.2 mph99%30.05 "HgN/A
9:02 PM46 °FLight rain. Overcast.No wind93%30.02 "HgN/A
7:58 PM49 °FLight rain. Passing clouds.No wind81%30.04 "HgN/A
6:58 PM52 °FPassing clouds.8 mph66%30.02 "HgN/A
5:58 PM55 °FSunny.8 mph60%29.98 "HgN/A
5:01 PM55 °FLight rain. Passing clouds.7 mph59%29.96 "HgN/A
Weather by CustomWeather, © 2016

See weather overviewHow to use our weather pages